Theta_e
311 311 312 312 312 312 312 312 312 311 311 311 311 310 310 310 310 311 311 311 311 311 311 311 311 311 312 312 312 312 312 312 311 311 311 312 312 312 311 310 310 309 308 306 304 304 304 303 302 302 300 298 296 294 294 294 293 293 292 292 290 290 290 289 287 286 286 287 288 287 287 286 286 286 286 286 286 286 286 286 286 285 285 286 286
311 311 312 312 312 312 312 312 311 311 311 310 310 310 310 310 310 310 311 310 310 310 310 310 310 311 311 311 311 311 311 311 311 311 311 311 311 310 310 309 309 308 306 305 304 303 303 302 301 299 297 296 295 294 294 292 292 292 291 290 289 289 289 289 287 286 286 286 286 286 286 286 287 287 287 287 286 286 286 286 285 285 286 286 286
310 310 311 311 311 311 311 312 311 311 311 310 310 310 309 310 310 310 310 310 310 310 309 309 309 310 310 310 310 310 310 310 311 311 310 310 309 309 309 308 308 307 306 305 304 303 302 301 300 298 296 295 294 293 292 291 291 290 289 289 289 288 288 289 288 286 285 285 286 286 286 286 287 288 288 287 287 286 285 285 285 285 286 287 286
310 310 311 311 311 311 311 311 311 311 310 310 310 309 309 309 309 309 309 309 309 309 309 309 309 309 309 309 309 309 310 310 309 310 310 309 308 308 308 307 307 307 306 305 304 303 302 300 299 298 295 294 293 291 290 290 289 289 288 288 288 288 288 289 291 289 287 286 285 285 286 287 288 288 288 287 287 286 285 284 284 286 287 286 286
310 310 310 310 311 311 311 311 311 310 310 310 309 309 309 309 309 308 308 308 308 308 308 308 308 308 308 308 309 309 308 309 309 309 308 307 306 306 306 306 306 306 305 304 303 302 301 300 299 297 294 292 291 290 289 288 288 287 287 287 288 289 289 290 292 292 291 289 287 286 287 288 288 288 288 287 286 285 284 284 284 285 286 286 286
309 309 310 310 310 310 310 310 310 310 310 310 309 309 309 309 308 308 308 308 308 307 307 307 307 307 308 308 308 308 308 308 308 308 307 307 305 304 304 304 304 304 303 303 302 301 300 299 298 296 293 291 290 288 288 287 287 286 287 288 289 290 291 292 292 293 293 292 290 289 289 289 289 289 288 287 285 284 284 285 285 286 286 285 285
308 309 309 310 310 310 310 310 310 310 310 309 309 309 308 308 308 307 307 307 307 306 306 306 306 306 307 307 307 307 307 307 307 307 306 305 304 303 302 302 302 301 301 301 301 300 300 299 297 295 293 291 290 288 287 286 287 288 289 290 291 292 292 292 293 293 292 292 291 290 290 290 289 288 287 286 285 284 285 285 285 285 285 285 284
308 308 309 309 309 310 310 310 310 309 309 309 309 308 308 307 307 307 307 306 305 305 305 305 305 305 305 305 306 306 306 305 305 305 305 304 303 302 302 301 300 300 299 299 299 299 299 297 297 296 294 292 290 288 287 287 288 289 290 291 292 293 293 293 292 292 292 291 290 290 289 289 288 287 286 285 285 285 285 285 284 284 284 284 283
308 308 308 308 309 309 309 309 309 309 309 308 308 308 307 306 306 306 306 305 304 304 304 304 304 304 304 304 304 304 303 303 304 304 304 303 301 301 300 300 299 298 298 298 297 297 297 296 295 295 293 291 290 288 287 287 289 290 291 293 294 294 293 293 293 292 291 290 290 289 288 287 286 286 285 286 286 285 285 284 284 284 283 283 282
307 307 307 309 309 309 308 308 309 308 308 308 307 307 306 306 305 305 305 305 304 303 303 302 302 302 302 302 302 302 301 302 303 303 302 301 299 298 298 298 297 297 297 296 295 295 295 295 294 293 291 290 289 288 287 288 290 292 293 294 294 294 294 293 292 292 290 290 290 289 286 285 285 286 286 286 285 285 284 284 283 283 282 282 282
307 307 307 309 309 308 308 307 308 307 307 307 307 306 306 305 304 304 304 304 303 302 302 301 301 300 300 300 300 300 301 303 303 302 300 299 297 296 296 296 296 296 295 295 294 293 293 292 291 290 289 288 287 287 288 290 292 294 294 294 294 294 293 293 292 291 290 289 289 288 286 285 285 286 285 285 285 284 283 283 282 282 281 281 281
307 307 307 308 307 307 307 307 307 306 306 306 306 305 305 304 304 303 303 302 301 301 300 300 299 299 298 299 299 300 301 302 302 300 298 296 295 295 295 295 295 294 294 294 293 291 290 289 288 287 287 287 286 287 290 292 293 293 293 293 293 293 293 292 292 291 290 289 288 287 286 285 285 285 285 284 284 283 283 282 282 282 281 281 281
307 307 307 307 306 306 306 305 305 305 305 305 305 305 304 303 303 302 302 301 300 300 299 298 298 298 297 297 298 299 300 300 299 298 296 293 292 293 293 293 293 293 293 292 291 290 288 287 286 285 285 285 287 290 292 292 292 292 292 292 292 292 291 291 290 290 289 288 287 286 286 285 285 285 284 284 283 282 282 282 282 282 282 281 281
306 306 306 306 305 305 304 304 304 304 304 304 304 303 303 302 302 302 301 300 298 298 298 297 297 297 296 296 297 297 298 298 297 296 293 291 291 292 292 292 292 292 292 291 290 289 287 286 285 284 284 287 289 291 292 292 292 292 291 291 291 291 290 290 289 289 288 287 287 286 286 285 284 284 283 282 282 282 282 282 282 282 281 281 281
306 305 305 304 304 304 304 304 303 303 303 303 303 302 302 301 301 300 300 299 298 297 296 296 296 295 295 295 295 296 296 295 294 293 291 291 291 291 291 290 290 290 290 290 289 289 287 286 285 285 287 289 291 291 291 291 292 291 291 291 290 290 289 288 288 288 287 287 286 285 284 283 282 282 282 282 282 282 282 282 281 281 281 280 280
306 305 304 304 303 303 303 303 303 303 302 302 301 301 300 300 299 299 298 297 296 296 295 295 294 294 294 293 293 294 294 294 293 292 291 290 290 290 290 289 289 289 289 288 288 287 287 286 286 287 289 291 290 290 291 292 291 291 290 290 289 289 288 288 287 287 286 284 283 282 282 282 282 282 282 282 282 282 281 281 281 281 280 280 280
306 305 304 304 303 302 302 302 302 302 301 300 300 300 300 299 298 298 297 296 295 294 294 293 293 293 293 292 293 293 293 293 292 291 291 290 289 288 288 288 288 288 287 286 286 286 286 286 286 288 290 290 290 290 291 291 291 290 290 289 288 288 287 286 285 284 283 282 282 281 282 282 282 282 282 282 282 281 281 281 281 281 280 280 280
306 305 304 304 303 302 301 301 301 300 300 300 300 299 298 298 297 297 296 295 294 293 293 292 292 292 292 292 292 292 292 292 291 290 290 289 288 288 287 286 286 286 285 285 285 285 286 285 287 289 290 289 289 290 290 290 290 290 289 289 288 286 285 284 283 282 282 282 282 282 281 281 281 281 281 282 281 281 281 281 280 280 280 280 279
305 304 304 303 302 301 301 300 300 300 300 299 299 298 298 297 297 296 295 294 293 292 292 292 291 291 291 291 292 291 291 291 290 290 290 289 288 288 287 286 285 285 284 283 283 284 284 284 286 288 289 289 289 289 290 290 290 290 289 288 287 285 283 283 282 282 282 282 282 281 281 281 281 281 281 281 281 281 280 280 280 279 278 278 278
303 302 302 301 300 300 300 299 299 300 299 299 298 297 297 296 295 294 293 292 292 291 290 290 290 289 289 289 290 289 289 289 288 288 287 287 288 287 286 286 285 284 283 283 282 282 283 284 285 287 288 289 289 289 289 289 289 289 288 287 286 284 283 282 282 282 282 282 281 281 280 280 280 280 280 280 279 280 279 279 278 278 277 276 276
301 300 300 299 299 298 298 298 298 298 298 297 296 295 295 294 293 292 291 290 290 289 289 288 288 288 287 287 287 287 287 287 286 286 285 286 287 287 286 285 285 283 283 282 282 282 282 283 284 286 287 288 289 289 289 289 288 287 286 285 284 283 283 282 282 282 282 281 280 280 280 280 280 279 279 279 278 278 277 277 276 276 275 274 274
298 298 297 297 297 297 297 296 296 296 296 295 294 293 292 292 291 290 290 289 288 288 287 286 286 286 285 285 285 285 285 285 285 285 285 285 286 286 285 285 284 284 283 282 282 283 283 283 284 286 288 288 289 289 288 288 287 286 285 284 283 283 282 282 282 281 281 280 279 279 279 279 279 278 278 277 276 276 275 275 274 274 273 273 272
296 296 295 295 295 295 295 295 294 294 294 293 293 292 290 290 289 289 288 288 287 286 285 285 285 284 284 284 284 284 284 284 284 284 284 285 286 285 285 285 284 284 284 283 282 283 283 284 286 287 288 288 288 288 287 286 285 284 284 283 283 282 282 281 281 280 280 279 279 278 278 277 277 276 276 275 275 274 274 273 272 272 271 271 271
295 294 294 294 293 293 293 293 293 293 292 292 291 290 289 288 288 287 287 287 286 285 284 284 284 283 283 283 283 283 283 283 283 284 285 285 285 284 285 284 284 284 284 283 283 283 284 286 287 288 288 288 287 286 286 285 284 283 283 282 282 282 281 280 280 279 279 278 278 277 276 276 275 275 274 273 273 272 272 271 271 270 270 270 269
293 293 292 292 292 292 291 291 291 291 291 290 290 289 288 287 286 286 286 286 285 284 283 283 283 282 282 282 283 283 283 283 284 285 285 285 284 284 284 284 284 284 284 283 283 284 285 286 287 288 287 286 286 285 284 283 282 282 282 281 281 280 280 279 279 278 278 277 276 276 275 274 274 273 273 272 272 271 270 270 270 269 269 269 268
292 291 291 290 290 290 290 290 289 289 289 289 289 288 287 286 286 285 285 285 284 283 283 282 282 282 282 282 283 284 284 285 286 286 285 284 284 284 283 283 283 283 284 284 284 285 286 287 287 286 286 285 285 284 282 282 281 281 280 280 280 279 279 279 278 278 277 276 275 274 274 273 273 272 272 271 270 270 269 269 268 268 268 267 267
290 290 289 289 289 289 289 288 287 287 287 287 287 286 286 286 285 284 284 284 283 283 282 282 282 281 281 282 284 285 285 286 286 285 285 285 285 284 284 284 284 284 285 285 286 286 286 286 286 285 284 283 282 282 281 280 280 279 279 279 279 278 278 278 277 276 275 274 274 273 273 272 272 271 270 270 269 269 268 268 267 267 267 266 266
289 288 288 288 287 287 287 287 286 286 286 286 286 285 285 285 285 284 284 284 283 283 282 282 281 281 281 283 284 285 285 286 286 285 285 285 285 285 285 285 286 286 286 286 286 285 285 284 283 283 282 281 280 280 280 279 279 279 278 278 278 278 277 276 275 274 274 273 273 272 272 271 271 270 270 269 268 268 267 267 267 267 266 266 266
288 287 287 286 286 286 286 285 285 285 285 285 284 284 284 284 284 284 284 284 284 284 283 282 282 282 282 282 284 284 285 285 285 285 285 285 285 286 286 286 286 286 286 286 285 284 283 283 281 281 280 280 279 279 278 278 278 277 277 277 277 276 275 274 273 273 273 272 272 271 271 270 270 269 269 268 268 267 267 267 267 266 266 265 265
286 286 286 285 285 285 285 284 284 284 284 284 284 284 284 284 284 284 284 284 284 285 285 284 283 283 282 282 283 283 284 285 286 285 285 285 285 286 286 287 287 286 286 285 285 284 282 281 280 280 280 279 278 278 277 277 277 276 276 276 276 274 273 273 273 272 272 271 271 270 270 269 269 268 268 267 267 267 267 266 266 266 265 265 265
285 285 285 285 285 285 284 284 284 284 284 284 283 283 283 283 284 284 284 284 284 284 284 284 283 283 283 282 282 282 283 285 286 285 285 285 285 285 286 286 286 285 285 285 284 283 282 281 279 279 279 279 278 278 277 277 276 276 276 275 274 273 273 272 272 271 271 270 270 270 269 269 268 268 267 267 267 267 266 266 265 265 265 264 264
285 285 285 285 285 284 284 283 283 283 283 283 283 283 283 283 283 284 283 284 283 283 283 283 283 283 283 283 282 282 282 284 285 285 285 285 284 285 285 285 285 284 284 284 284 282 281 280 279 278 278 278 278 277 277 276 276 276 275 274 273 273 273 272 271 271 270 270 269 269 269 268 268 267 267 267 267 266 266 265 265 264 264 264 264
286 286 285 285 284 284 283 283 283 283 283 283 282 283 283 282 283 283 283 283 283 283 283 283 283 282 282 282 282 282 282 283 283 284 284 284 284 284 285 284 284 283 283 283 282 281 280 279 279 278 278 278 278 277 277 276 276 275 275 274 273 273 272 271 271 270 270 269 269 268 268 268 267 267 267 266 266 266 265 265 264 264 264 263 263
286 286 285 285 284 283 283 283 283 282 282 282 282 282 282 282 282 282 283 283 283 283 283 283 283 283 283 283 283 282 282 282 282 282 283 283 284 284 283 283 282 282 281 281 281 280 279 278 278 278 278 278 277 277 276 276 276 275 274 274 273 272 271 271 271 270 269 269 268 268 267 267 267 267 266 266 265 265 265 264 264 264 263 263 263
286 285 285 284 284 283 283 283 283 282 282 282 282 282 282 282 282 282 282 282 282 282 282 282 282 283 283 283 283 283 282 282 282 282 283 283 282 282 282 281 281 280 280 279 279 280 279 279 278 278 278 277 277 276 276 276 275 275 274 273 272 272 271 271 270 269 268 268 268 267 267 267 267 266 266 265 265 265 265 264 264 263 263 262 262
285 285 284 284 284 283 283 283 282 282 282 282 282 282 282 282 281 281 281 281 281 281 281 281 281 282 282 282 282 282 282 282 282 282 282 281 281 281 281 281 281 280 279 279 279 280 280 279 278 278 277 276 276 276 276 275 275 274 273 273 272 271 271 270 269 268 268 267 267 267 267 266 266 266 265 265 265 265 264 264 264 263 263 262 262
285 284 284 283 283 283 283 282 282 282 282 282 282 282 281 281 281 281 280 280 280 280 280 281 281 281 281 281 281 281 281 281 281 281 281 281 281 281 281 280 280 280 279 279 279 279 279 278 278 277 276 276 276 276 276 275 274 273 272 272 271 271 270 269 268 268 267 267 267 266 266 266 266 265 265 265 265 264 264 264 264 263 263 262 262
284 284 283 283 283 282 282 282 282 282 282 282 282 281 281 281 280 280 280 279 280 280 280 280 280 280 281 281 281 281 281 281 281 281 281 281 281 281 280 280 280 279 279 278 278 277 278 278 277 277 276 276 276 275 275 274 273 272 272 271 270 269 268 268 267 267 267 267 266 266 266 265 265 265 265 265 265 264 264 264 263 263 263 262 262
284 284 283 283 283 282 282 282 282 282 282 281 281 281 281 280 279 279 279 279 279 279 279 280 280 280 280 280 280 281 281 280 280 280 279 279 280 279 279 279 279 279 278 277 277 277 277 277 277 276 276 276 275 275 274 273 272 272 271 270 269 268 267 267 267 267 267 266 266 266 265 265 265 265 265 265 265 264 264 263 263 263 263 262 262
284 284 283 283 283 282 282 282 282 282 281 281 281 281 280 280 279 279 278 278 279 279 279 278 278 278 279 279 280 280 280 279 278 278 278 278 277 277 277 277 277 277 277 277 276 276 276 276 276 276 275 275 274 273 273 272 272 271 270 269 268 267 267 267 267 267 266 266 265 265 265 265 264 264 264 264 264 264 264 263 263 262 262 262 262
283 283 283 283 283 282 282 282 281 281 281 281 281 280 280 279 279 278 278 278 278 278 278 277 277 277 277 278 278 279 279 278 277 276 276 276 275 275 275 275 275 275 275 275 275 275 275 275 274 274 274 273 273 272 272 271 270 269 268 268 267 267 266 266 266 266 266 265 265 265 265 264 264 264 264 264 264 263 263 263 263 262 262 262 261
282 282 282 282 282 282 281 281 281 281 281 281 280 280 280 279 278 278 277 277 277 277 277 276 276 276 276 277 277 277 277 277 276 276 275 275 274 274 274 274 274 274 274 273 273 273 273 273 273 272 272 272 271 270 270 269 269 268 268 267 267 266 266 266 266 265 265 265 265 265 264 264 264 264 263 263 263 262 262 262 262 262 262 262 261
281 281 281 281 281 281 280 280 280 280 280 279 279 279 279 278 278 277 277 277 276 276 276 275 275 275 275 275 276 276 276 275 275 274 274 273 273 273 273 273 273 272 272 272 271 271 271 271 270 270 270 269 269 268 268 268 268 267 267 266 266 266 266 265 265 265 265 265 265 264 264 264 263 263 263 263 262 262 262 262 262 262 261 261 261
280 280 280 280 280 280 279 279 279 279 278 278 278 278 278 278 277 276 276 276 276 275 275 275 275 274 274 274 274 274 274 273 273 273 272 272 272 272 272 271 271 270 270 270 270 270 270 269 269 269 268 268 268 267 267 267 267 266 266 266 265 265 265 265 265 265 265 265 264 264 264 263 263 263 262 262 262 262 262 262 262 261 261 261 261
279 279 279 279 278 278 278 278 278 278 278 277 277 277 277 277 276 276 275 275 275 274 274 274 274 274 273 273 273 272 272 271 271 271 271 271 271 271 271 270 269 269 269 269 269 269 269 269 268 268 268 268 267 267 267 266 266 266 265 265 265 265 265 265 265 264 264 264 263 263 263 263 263 262 262 262 262 261 261 261 261 261 261 261 260
277 278 278 277 277 277 277 277 277 277 276 276 276 275 275 276 276 275 274 274 274 274 273 273 273 273 273 272 272 271 271 270 270 270 271 271 271 270 270 269 268 268 268 268 268 268 268 268 268 268 268 267 267 267 266 266 265 265 265 265 265 265 265 264 264 264 263 263 263 263 262 262 262 262 262 262 261 261 260 260 260 260 260 260 260
276 276 276 276 276 276 275 275 275 275 275 275 275 274 274 274 274 274 274 273 273 272 272 272 272 272 272 271 270 270 269 270 270 270 270 270 270 269 269 268 268 268 268 268 268 268 268 267 267 267 267 266 266 266 266 265 265 265 265 264 265 265 264 264 264 263 263 263 263 262 262 262 262 262 261 261 260 260 260 260 260 260 260 259 259
274 274 274 274 274 274 274 274 274 274 274 274 273 273 273 273 273 273 273 273 272 272 271 271 271 271 270 270 270 269 270 270 270 269 269 268 268 268 268 268 267 267 267 267 267 267 266 266 266 266 266 266 265 265 265 265 264 264 264 264 264 264 264 264 263 263 263 263 262 262 262 262 261 261 261 261 260 260 260 260 260 259 259 259 259
274 274 274 274 274 273 273 273 273 273 273 272 272 272 272 272 272 271 271 271 271 271 271 270 270 270 270 270 269 269 270 270 269 269 268 268 268 267 267 267 267 266 266 266 266 266 266 265 265 265 265 265 265 264 264 264 264 264 264 264 264 264 263 263 263 263 263 262 262 262 261 261 261 261 261 260 260 260 260 260 260 259 259 259 258
273 273 273 272 272 272 272 273 273 272 272 272 271 271 270 270 270 270 270 270 270 270 269 269 269 269 269 269 269 269 269 268 268 268 267 267 267 266 266 266 266 266 266 266 265 265 265 265 265 265 264 264 264 264 264 264 264 264 264 264 264 263 263 263 263 263 262 262 262 261 261 261 261 261 260 260 260 260 260 260 260 259 259 259 258
271 271 271 271 270 270 271 271 271 271 271 271 270 270 270 269 269 269 269 269 269 269 268 268 268 268 268 268 268 268 267 267 267 267 266 266 266 265 265 265 265 265 265 265 265 265 264 264 264 264 264 264 264 264 264 264 264 264 264 263 263 263 263 263 263 263 262 262 261 261 261 261 260 260 260 260 260 260 260 260 259 259 259 259 258
Wind_Speed
34 36 36 35 34 33 33 32 31 31 31 31 33 34 33 34 34 33 33 32 31 30 31 31 31 31 31 32 32 33 35 36 36 36 35 34 34 34 35 36 36 36 35 34 34 34 35 36 35 35 35 34 33 32 31 30 30 31 30 28 24 21 22 22 17 13 12 12 13 13 12 10 8 8 8 8 9 11 12 13 13 14 15 16 16
34 35 35 35 34 33 33 31 30 30 31 32 33 33 33 33 33 32 33 33 32 31 31 31 31 31 30 31 32 33 34 34 34 34 34 34 34 35 35 34 34 34 33 33 33 33 34 35 35 35 35 35 34 32 31 31 31 32 30 28 26 24 22 23 22 17 14 15 15 13 12 11 10 10 10 11 11 12 14 15 14 15 16 18 19
32 32 33 35 35 33 32 32 30 30 31 32 33 33 33 32 32 32 32 32 32 31 30 30 30 30 30 31 32 33 33 33 32 32 32 33 34 35 35 34 33 32 32 32 34 34 33 34 35 35 35 34 33 32 31 32 32 32 30 29 27 25 22 22 22 19 18 17 15 14 13 12 12 11 11 12 11 13 15 16 15 17 19 20 22
30 30 32 34 34 33 33 32 31 32 33 33 33 33 33 32 31 31 31 31 31 31 29 29 30 31 32 33 32 32 32 31 30 30 31 32 33 33 33 33 32 32 32 33 34 35 35 35 36 36 37 35 34 33 33 32 32 31 29 28 27 25 22 20 19 18 20 19 15 14 14 12 12 12 12 12 12 14 16 17 17 19 21 22 23
29 30 32 34 34 34 34 34 34 34 34 34 33 33 33 32 32 31 31 31 31 30 29 29 30 31 32 33 32 31 31 30 30 30 30 30 31 31 32 32 31 31 32 33 34 36 36 36 37 37 37 36 35 35 34 33 31 30 29 28 27 25 23 20 17 16 18 18 16 14 12 12 12 12 11 12 13 14 16 18 19 21 23 24 24
30 31 33 34 34 35 35 36 36 36 35 34 33 32 32 32 32 32 31 31 31 30 30 30 30 31 32 31 31 30 29 29 28 27 28 28 29 30 31 30 30 31 31 32 33 35 36 36 36 37 37 36 36 35 34 34 33 31 29 27 26 24 22 20 18 16 15 15 14 13 12 12 12 12 10 10 11 13 16 19 21 21 22 24 25
31 32 33 33 34 36 37 38 38 37 36 34 32 32 32 32 32 32 31 31 31 31 31 31 31 31 31 30 30 29 28 27 27 26 26 27 28 29 29 29 29 30 31 31 32 33 35 36 36 37 38 37 36 36 36 36 34 32 30 27 25 22 21 19 17 15 13 13 13 12 12 11 11 10 9 9 11 13 16 20 22 22 22 25 27
32 32 32 33 35 38 38 38 38 37 35 33 32 32 32 32 32 31 31 32 32 31 31 31 31 31 31 30 29 28 28 27 27 26 26 27 27 28 28 29 29 29 30 30 31 32 33 34 35 36 38 38 38 38 38 37 36 33 30 27 24 22 20 19 16 14 13 13 12 11 10 10 9 8 8 9 11 13 14 17 21 23 23 25 25
32 32 33 34 37 39 39 38 38 37 35 34 33 32 31 31 31 31 32 32 32 31 31 31 31 31 30 29 29 29 28 28 27 26 26 27 27 27 27 28 29 29 29 29 30 31 32 34 35 36 38 38 39 39 39 38 36 33 29 26 24 21 19 17 15 15 14 14 12 11 10 9 8 8 8 9 11 13 13 15 20 22 23 26 25
32 33 34 37 38 39 38 37 37 36 35 34 33 32 31 30 30 31 31 32 31 30 30 30 30 30 30 30 29 29 28 27 26 26 26 26 26 26 26 27 27 28 28 28 29 30 32 33 35 36 37 38 38 39 38 36 32 28 25 23 20 18 17 16 16 16 15 14 13 12 11 9 8 7 8 9 10 12 13 14 17 20 22 25 24
33 34 37 39 38 37 38 37 36 35 34 34 33 31 30 29 29 30 30 30 30 29 30 30 30 30 30 30 30 29 28 27 26 26 26 25 25 26 27 27 27 28 28 29 30 30 31 32 33 35 37 38 39 39 36 31 26 22 19 17 14 12 12 14 15 16 15 14 13 12 10 8 8 7 8 9 10 10 11 13 16 20 20 20 20
34 36 38 39 37 36 37 36 35 34 34 33 32 30 29 28 29 30 30 30 30 29 29 30 29 29 30 30 29 28 26 26 26 26 26 25 25 26 28 28 28 28 29 30 30 31 31 31 32 34 36 39 40 38 32 26 22 19 16 14 12 9 8 9 11 13 13 12 11 11 10 8 7 8 7 8 9 10 13 15 16 18 18 16 18
34 36 38 38 38 36 35 34 33 33 32 31 30 28 27 28 29 30 30 30 29 29 29 29 29 29 29 28 27 26 24 24 25 25 25 25 25 25 27 27 27 28 30 30 31 31 31 32 32 33 36 40 40 36 31 26 22 18 15 13 12 9 8 8 8 8 8 9 9 9 8 7 7 7 7 8 10 12 14 15 15 16 16 17 18
33 35 36 36 36 34 32 32 32 31 30 29 28 28 27 28 29 29 30 29 29 29 29 29 29 28 28 27 25 24 23 23 23 23 24 24 25 25 26 25 26 27 29 31 31 32 33 34 34 36 40 41 39 35 31 27 22 18 16 14 12 10 9 8 7 6 6 6 7 6 6 5 6 7 7 8 10 11 12 13 14 15 17 18 19
30 32 33 33 33 32 31 31 30 29 27 27 27 27 27 27 28 29 29 29 29 29 29 29 28 28 27 25 24 23 23 22 22 22 23 24 24 25 24 25 25 27 28 30 32 33 35 35 37 41 43 41 37 34 30 25 20 18 16 13 11 9 8 6 5 5 5 4 4 3 2 2 3 4 5 7 8 9 10 11 13 15 18 20 21
29 30 31 31 31 30 29 29 28 27 26 26 26 26 26 26 27 28 28 28 28 28 28 28 28 27 25 24 23 23 23 22 22 22 22 23 23 24 24 24 26 28 29 30 32 33 35 36 40 44 44 40 36 32 26 20 18 16 15 13 11 9 7 5 5 4 4 3 2 1 1 0 1 2 4 5 7 8 9 11 12 14 16 18 18
29 30 30 30 29 28 27 26 26 26 25 25 25 25 25 26 27 27 27 27 27 27 27 26 26 25 24 24 23 23 22 21 21 21 20 21 23 23 24 25 27 28 29 30 32 33 34 37 42 46 44 39 35 28 22 17 16 15 13 13 11 8 6 5 5 4 3 3 3 2 2 1 0 1 3 4 5 7 9 11 12 12 14 14 13
29 29 29 29 27 26 25 24 24 24 24 24 24 24 25 26 26 26 27 27 27 27 26 25 24 23 23 23 23 22 22 20 20 19 19 21 25 26 26 26 27 27 28 28 29 32 34 37 41 44 42 36 31 26 20 16 14 13 13 12 10 7 6 6 5 5 5 5 4 4 3 1 0 1 2 3 4 5 7 9 10 10 11 11 11
28 28 28 27 25 24 23 23 23 23 23 23 24 25 25 25 25 25 26 25 25 24 23 23 22 22 21 21 20 20 18 17 17 17 17 21 26 28 28 27 27 27 27 27 28 30 34 36 38 39 38 33 28 24 19 14 12 12 12 11 10 8 7 6 6 6 6 5 4 4 3 2 2 3 2 2 2 3 4 6 7 7 8 8 10
26 25 24 23 22 22 22 22 23 23 23 24 24 24 24 23 23 23 23 22 22 22 21 21 20 19 18 17 17 16 15 15 15 15 15 19 25 27 27 28 27 27 28 28 27 29 33 35 35 35 33 30 25 21 17 13 11 11 11 10 9 8 8 7 7 6 6 5 4 3 3 3 3 1 1 2 3 3 3 3 4 4 5 7 8
22 21 20 19 19 19 20 20 21 21 22 22 22 21 21 21 21 21 21 20 20 19 19 18 18 17 16 15 15 15 14 14 15 14 15 19 23 25 25 26 27 27 27 27 28 29 32 33 32 31 29 26 22 19 16 13 11 10 9 8 7 8 9 8 8 7 6 5 4 4 4 4 3 4 5 4 3 2 1 2 4 5 6 6 7
18 17 17 16 16 17 17 18 18 18 19 19 19 19 19 19 19 20 20 19 18 18 17 17 16 15 15 14 14 14 12 12 13 14 16 19 21 23 24 25 26 27 27 27 28 30 32 32 31 29 27 23 20 16 13 11 10 9 8 7 8 9 9 9 8 7 6 5 6 6 6 6 7 7 5 3 0 1 3 5 6 7 7 6 6
14 14 14 14 15 15 15 16 16 16 17 18 18 18 18 18 19 19 19 19 19 18 17 17 16 15 15 14 13 13 11 11 12 15 17 19 21 23 23 24 25 26 27 28 29 30 32 31 30 27 24 20 17 14 12 11 10 9 9 10 11 10 9 9 8 7 7 8 8 8 8 8 7 5 2 1 2 4 5 5 6 6 6 6 6
13 13 13 13 14 14 14 14 14 15 16 18 19 20 20 20 20 20 20 20 20 18 17 17 17 16 15 14 13 12 11 11 13 15 17 19 20 21 22 23 25 25 26 29 31 32 32 31 28 24 21 18 15 13 13 12 10 10 11 13 12 10 9 9 9 9 10 10 10 11 9 8 6 4 2 2 3 5 5 4 4 5 5 6 6
13 13 13 13 13 13 13 13 14 15 16 18 20 21 22 22 21 21 21 21 20 19 18 17 17 16 15 14 13 13 12 13 14 15 16 18 19 19 21 23 24 25 26 28 31 32 31 28 25 21 19 17 16 15 14 13 12 12 13 13 11 10 10 10 10 10 11 12 12 12 10 7 5 4 2 3 5 5 4 3 4 5 6 6 5
13 13 14 14 14 14 14 14 15 16 17 17 18 20 22 22 22 21 21 20 20 19 19 18 17 16 15 15 15 14 13 15 16 16 17 17 18 18 20 21 23 25 26 28 30 30 28 25 23 20 18 16 15 15 14 13 13 13 13 11 10 10 10 10 10 11 12 13 13 12 10 7 5 3 4 5 5 5 4 4 5 5 6 6 4
14 14 14 15 15 16 17 17 17 17 17 17 18 19 20 21 22 22 21 20 20 19 18 18 18 17 17 17 17 17 17 18 19 20 20 20 20 19 21 22 23 25 26 28 28 27 25 23 21 19 17 15 14 14 14 14 14 14 12 11 11 10 10 9 10 12 13 13 12 11 8 6 4 4 4 4 4 4 4 5 5 5 5 6 5
14 15 15 16 17 17 18 19 19 18 17 17 18 19 19 20 21 21 21 22 22 21 20 19 19 20 20 21 20 20 20 21 23 23 23 24 24 24 25 26 27 29 30 29 28 26 24 23 21 19 18 17 16 15 15 15 15 13 12 12 11 10 10 10 11 12 12 11 10 9 7 5 4 4 3 4 4 4 4 5 5 5 5 6 6
15 16 16 17 17 18 19 19 19 19 18 17 17 17 18 19 20 19 19 19 19 19 20 21 21 22 24 25 24 23 22 24 24 25 25 25 26 27 28 28 29 29 28 27 27 26 24 23 22 21 19 18 18 18 18 17 16 14 13 11 10 10 11 11 12 12 11 10 8 7 5 4 3 3 3 3 3 3 4 4 5 5 6 7 7
16 16 17 17 18 19 19 20 21 21 20 19 18 16 14 15 16 16 16 15 14 14 15 18 20 21 23 25 25 24 25 26 25 24 24 24 24 25 25 24 24 25 25 24 23 24 24 23 22 21 21 21 22 23 22 20 18 16 14 12 12 13 13 12 12 11 10 8 6 5 4 3 3 4 3 2 2 2 3 4 5 5 6 7 8
17 16 17 18 19 19 21 22 22 22 22 22 21 20 17 14 11 11 12 11 10 10 11 13 16 17 19 22 22 21 23 26 26 24 24 23 22 21 20 20 21 22 23 22 21 22 23 23 22 22 23 24 25 24 23 22 21 19 17 16 16 15 13 12 11 10 8 6 5 4 4 4 4 4 3 1 1 2 2 3 4 4 5 6 7
17 17 17 18 18 20 21 22 22 22 22 22 22 22 22 20 16 12 10 10 10 10 10 11 13 14 16 19 19 20 23 25 25 24 23 22 21 19 18 18 20 21 21 20 20 22 23 24 25 25 26 26 25 24 23 23 21 20 20 21 20 17 14 12 11 9 7 5 4 5 6 6 5 4 2 1 1 1 2 2 3 4 5 5 7
18 18 19 20 20 21 21 22 22 23 23 23 22 22 22 21 20 18 16 13 12 11 11 11 12 12 14 16 16 18 22 24 24 24 23 21 20 19 18 19 19 21 22 22 21 23 25 25 26 27 27 26 25 24 23 22 22 22 22 21 18 16 14 12 10 9 7 6 6 7 7 6 5 4 2 2 2 2 2 3 3 4 4 6 8
18 20 22 23 23 23 23 24 24 24 24 24 23 21 21 22 22 22 21 19 16 15 13 13 13 13 14 15 16 18 21 23 23 23 22 21 21 20 19 19 18 19 22 23 23 24 26 26 26 27 27 26 25 24 24 23 23 23 22 20 17 15 14 12 11 9 8 8 9 9 8 6 5 4 4 4 3 3 3 3 4 4 5 6 8
18 19 21 22 23 23 24 25 25 25 25 24 23 22 22 23 23 22 22 21 20 18 17 15 15 15 16 17 17 18 20 22 22 22 22 23 23 21 21 21 20 19 21 23 23 25 27 27 27 27 26 25 24 24 24 24 24 24 23 21 18 16 15 13 11 10 10 10 10 9 8 7 6 6 5 5 4 4 4 4 4 5 6 7 9
17 19 20 22 22 23 23 24 24 25 25 24 24 24 24 23 23 22 21 22 22 21 20 18 16 15 15 16 17 18 19 19 20 21 21 22 23 24 25 25 24 23 23 23 23 24 25 25 25 25 25 24 23 23 24 24 23 22 21 20 18 16 14 13 12 12 12 11 10 9 9 8 8 7 6 6 5 5 5 5 5 6 6 7 9
17 18 19 20 21 22 23 22 23 24 25 25 25 25 24 23 23 23 22 22 22 22 22 22 21 19 18 17 17 17 18 18 18 18 19 19 21 24 25 25 25 24 23 23 23 22 23 23 22 23 23 22 21 22 23 22 21 20 19 17 16 14 13 13 13 12 12 11 11 10 10 9 8 8 7 7 6 6 6 6 6 6 7 8 9
18 19 18 18 19 20 21 22 22 24 25 25 26 25 25 23 23 23 23 22 22 23 23 23 23 23 23 21 20 20 20 20 19 19 19 20 22 23 22 22 23 23 22 21 21 21 21 21 21 20 20 20 19 21 21 20 19 19 18 16 15 14 13 13 13 13 12 12 11 11 10 10 9 9 8 8 7 7 7 7 7 8 8 9 10
20 21 20 20 20 20 21 22 24 25 25 25 25 25 25 25 24 23 23 23 23 23 23 23 22 23 24 24 24 24 24 23 23 22 21 20 20 19 19 19 20 20 19 18 19 19 19 19 19 18 18 18 18 19 19 19 18 17 16 15 15 15 15 15 14 14 13 12 12 12 11 11 10 10 10 9 9 8 8 9 9 9 9 10 10
21 22 22 23 22 22 22 23 25 25 25 25 26 26 26 25 25 24 24 23 23 22 22 22 22 22 24 24 25 26 25 24 23 21 19 18 17 16 16 16 16 16 16 16 17 17 17 16 16 16 16 17 17 18 18 17 16 15 15 15 15 15 15 15 14 13 13 12 12 12 12 12 11 11 12 11 10 9 10 10 10 10 11 11 12
21 22 23 24 24 24 24 24 24 25 25 25 25 25 25 24 24 24 23 23 22 22 20 20 20 21 22 21 22 22 22 21 20 18 16 15 14 13 13 13 13 13 13 13 14 14 14 14 14 15 15 16 16 16 16 15 15 14 14 14 14 14 15 14 14 14 13 13 13 13 13 13 12 13 12 11 10 11 11 11 11 11 12 12 13
21 22 23 23 24 25 25 24 23 23 23 23 23 23 23 23 23 22 22 21 21 20 19 18 19 20 18 17 17 18 18 17 16 15 13 12 11 11 11 11 11 11 11 10 10 10 10 11 11 12 13 13 14 14 14 13 13 13 14 14 14 15 15 15 15 14 14 14 14 14 14 14 13 13 13 12 11 12 12 12 12 12 13 14 14
19 21 21 22 23 23 23 22 21 21 21 21 20 20 20 21 21 20 20 19 19 19 19 19 19 19 16 14 15 15 15 14 13 13 12 11 10 10 9 9 9 9 9 9 9 8 9 9 9 10 10 11 11 11 11 11 12 12 13 14 15 15 15 15 15 15 15 15 15 15 15 14 14 14 14 13 13 13 13 13 14 14 14 15 15
20 21 22 22 22 21 20 19 19 19 18 18 17 17 18 19 19 19 19 19 19 19 19 19 20 20 17 14 14 14 13 12 12 11 10 10 9 9 8 9 8 8 8 8 8 8 9 9 9 9 10 10 11 11 11 12 13 13 14 14 15 16 16 16 15 15 15 15 15 15 15 15 15 15 15 15 15 15 14 15 15 14 15 15 15
22 23 23 22 21 20 19 18 18 18 17 17 17 16 17 18 18 19 19 19 19 18 18 19 20 20 18 15 14 13 12 12 11 10 9 9 9 8 8 8 8 8 8 8 8 8 9 9 10 10 10 11 12 12 12 13 14 14 15 15 16 17 16 15 14 14 14 15 16 15 15 15 15 16 16 16 16 16 15 15 15 15 15 16 16
20 22 22 22 21 20 19 19 19 18 18 18 17 17 17 17 17 18 18 19 19 18 18 18 19 20 18 16 15 14 13 12 11 10 9 8 8 8 8 8 7 7 7 7 8 8 9 10 11 11 11 12 13 13 13 14 15 15 16 17 17 17 16 15 15 15 16 16 16 16 16 16 17 17 17 17 17 16 16 16 15 16 16 17 17
18 19 21 21 22 21 20 20 20 19 18 18 18 17 17 17 17 17 18 18 18 18 18 18 18 19 19 18 16 14 13 11 9 8 8 8 8 7 7 6 6 7 7 8 8 9 10 11 11 12 12 13 13 14 15 15 16 17 17 18 18 17 17 16 17 17 17 17 17 17 17 18 18 18 18 18 18 18 18 17 17 17 17 17 18
19 19 19 20 21 21 21 21 20 20 19 19 18 18 18 18 18 18 18 18 17 17 17 18 18 18 18 17 15 12 10 8 7 6 6 6 5 5 5 5 6 7 8 9 9 10 10 11 11 12 13 13 14 15 15 16 17 17 18 18 18 18 18 18 18 19 18 19 19 19 19 19 20 20 20 20 19 19 19 19 18 18 18 18 18
20 20 20 20 21 21 21 21 21 21 21 20 20 19 19 19 18 18 18 17 17 16 16 17 17 17 16 14 12 9 7 6 5 4 4 4 4 4 5 6 7 8 9 9 10 10 11 11 12 13 13 14 15 15 16 16 17 18 18 18 18 18 18 19 20 20 20 21 21 21 21 21 21 21 21 21 20 20 20 20 20 19 19 19 20
19 20 21 21 21 21 21 21 21 21 21 21 21 20 20 19 19 18 18 17 16 15 15 14 14 13 11 9 8 6 5 4 4 4 4 4 5 5 6 7 8 8 9 9 10 11 12 12 13 14 14 15 16 16 17 17 18 18 18 18 18 18 19 19 20 20 21 21 22 21 21 22 22 22 22 22 21 21 22 21 20 20 20 20 21
19 20 20 20 20 21 21 21 21 21 20 20 21 21 20 20 19 17 16 15 14 14 12 11 10 8 7 6 5 4 4 3 3 3 3 4 5 6 6 7 8 9 10 10 11 12 12 13 14 15 15 16 17 17 17 18 18 18 18 18 18 18 19 19 20 20 20 21 21 21 21 22 23 23 23 22 22 22 23 22 21 21 21 21 21
Wind_Direction
231 230 230 229 230 232 234 236 237 239 241 242 242 242 242 242 241 241 239 238 238 238 240 242 243 242 241 242 241 240 237 233 230 227 225 225 224 224 224 224 225 227 228 227 226 225 223 220 218 215 210 203 199 198 199 199 199 197 195 193 189 187 182 164 141 143 163 168 172 183 193 199 208 225 241 254 263 271 277 280 283 286 291 296 301
234 233 232 230 231 232 234 236 237 239 240 242 243 243 243 242 242 242 242 241 239 240 241 241 241 240 239 242 243 242 239 235 232 230 229 228 227 227 226 224 224 225 225 225 223 221 219 216 212 206 201 199 198 198 197 194 192 190 187 184 177 173 175 165 149 146 158 166 171 179 189 202 217 232 244 254 264 273 277 280 285 291 297 301 303
239 238 236 236 235 234 235 235 236 237 239 241 243 243 242 242 242 242 243 243 240 239 240 240 239 239 240 242 241 239 236 234 233 233 234 234 232 229 227 226 226 225 225 223 221 218 215 212 208 202 198 197 196 194 192 189 188 185 181 178 171 165 170 171 161 156 160 169 179 186 191 206 223 235 247 258 268 275 277 282 288 294 300 304 305
240 241 241 242 241 239 237 236 235 236 238 240 242 242 241 240 241 242 242 242 240 238 238 239 239 240 240 239 236 235 234 234 235 237 238 237 234 231 230 229 228 229 228 225 221 217 213 209 206 202 198 195 193 190 187 184 184 181 174 170 167 162 164 170 171 169 168 171 182 192 197 213 229 239 251 264 272 277 279 284 289 295 302 305 306
240 241 242 243 243 242 241 239 236 236 237 239 240 240 240 240 240 241 241 240 239 238 237 237 238 237 237 236 235 234 235 236 237 238 238 237 235 234 233 230 230 229 228 225 221 217 213 209 205 201 197 193 189 186 183 179 178 177 169 164 164 163 163 167 173 177 177 176 179 190 203 220 234 244 255 267 276 279 280 283 288 295 302 305 306
240 241 241 241 242 243 243 241 239 238 238 238 238 239 239 239 240 240 239 238 238 238 238 237 236 235 236 236 236 237 237 238 239 239 240 239 237 235 232 230 230 228 226 224 221 218 214 210 206 201 197 193 188 183 179 175 172 170 166 163 165 165 163 165 172 177 181 181 181 193 211 224 239 251 261 272 279 280 283 289 293 298 304 307 310
242 241 240 240 242 244 244 244 243 242 241 240 239 239 239 238 239 238 238 238 238 238 238 237 236 235 236 236 236 237 237 236 238 239 241 240 237 233 230 229 227 226 225 222 220 217 214 211 208 203 199 196 190 182 176 173 171 170 169 167 166 165 163 167 174 178 181 185 191 204 215 226 243 257 268 279 281 282 289 295 298 303 308 309 310
243 242 240 239 241 244 245 246 246 245 244 243 242 240 239 238 238 238 238 237 238 238 238 236 235 234 233 234 234 234 234 234 236 238 238 237 234 231 229 227 225 223 222 220 218 216 214 212 210 207 203 199 192 184 178 175 173 171 170 168 165 165 167 171 177 182 187 191 199 210 219 229 243 255 270 279 282 288 297 298 298 304 309 308 308
243 241 239 239 243 247 246 245 246 246 245 244 242 241 239 238 237 236 238 238 238 238 237 236 234 232 230 230 230 231 231 233 236 237 236 232 229 228 227 225 223 220 218 217 216 214 212 210 210 207 203 199 193 187 182 180 177 171 168 167 165 166 171 175 181 186 190 195 203 212 220 230 240 252 268 279 286 296 304 302 299 304 309 308 308
245 241 238 241 247 248 245 244 245 244 243 242 242 240 238 237 235 235 237 239 237 235 234 234 233 232 230 228 228 229 230 234 238 237 234 231 228 225 223 222 219 217 216 213 212 212 211 210 208 205 201 196 191 186 183 182 180 172 165 164 165 169 174 180 187 192 194 199 208 214 214 221 237 253 270 285 294 299 303 303 302 306 312 311 313
248 244 243 245 247 244 242 242 242 242 241 241 241 239 237 235 234 234 235 236 234 232 231 232 232 231 230 228 227 228 230 235 237 234 231 229 227 223 220 217 214 214 214 212 210 208 207 206 205 202 198 192 186 183 181 178 175 169 162 161 166 172 178 184 192 197 200 205 211 215 213 218 241 262 278 291 296 298 300 303 305 309 314 313 311
251 248 248 248 245 242 240 239 239 239 240 240 239 238 236 234 233 232 232 232 230 228 228 230 230 230 228 227 227 228 232 235 233 230 228 226 224 222 218 214 211 211 212 211 209 205 201 200 199 197 193 186 181 178 174 170 168 166 162 164 170 177 186 194 198 201 206 210 211 215 221 228 249 268 284 291 293 297 300 303 306 308 309 305 303
254 250 249 247 244 242 240 237 237 238 239 239 238 237 234 232 231 231 231 231 228 226 226 227 227 227 225 224 226 228 231 232 229 228 226 221 219 218 215 213 212 211 211 209 206 201 197 193 190 188 184 179 176 172 168 166 166 165 164 167 172 180 191 200 204 206 212 216 215 223 236 245 258 277 289 291 296 302 304 307 311 310 306 302 301
254 251 249 246 244 242 239 237 238 238 238 237 236 234 232 231 230 230 230 228 225 223 224 223 224 225 225 224 226 227 229 229 226 225 222 219 217 216 215 215 214 213 211 208 204 201 196 191 184 179 176 174 173 169 166 165 164 165 169 173 175 183 192 198 205 211 216 222 225 233 248 256 268 285 292 295 302 308 311 313 314 310 305 302 304
256 253 249 246 244 241 238 238 237 236 235 233 232 230 230 229 228 228 227 226 224 222 222 221 222 222 223 223 223 225 226 225 222 220 217 215 213 212 213 213 213 212 210 208 205 201 196 191 183 175 172 174 174 171 167 165 164 167 172 174 177 184 190 196 204 209 211 216 222 225 234 254 278 294 302 307 308 307 308 308 308 308 306 305 306
257 254 250 247 245 241 239 237 236 234 232 229 227 227 227 226 225 225 224 224 223 221 219 220 220 220 220 220 220 222 223 222 219 216 213 210 208 209 210 210 210 210 207 205 203 198 193 188 180 174 174 176 175 171 167 163 164 168 170 173 180 186 187 189 190 190 186 173 156 138 125 162 305 310 306 304 299 298 300 299 301 307 306 303 304
254 252 249 248 245 242 240 237 235 232 228 226 226 225 224 223 222 221 220 218 216 216 216 217 218 219 218 218 218 219 220 218 216 213 210 204 201 202 204 206 207 205 202 200 198 194 190 185 179 176 177 176 172 169 168 166 166 168 171 176 183 183 175 173 170 161 144 124 116 109 109 135 195 296 291 293 296 298 298 296 297 303 304 301 305
253 250 249 249 246 244 242 238 234 231 228 228 227 225 223 222 221 220 218 216 214 213 214 215 216 218 218 219 219 219 218 215 213 213 210 204 202 202 201 199 200 198 195 194 194 191 188 184 180 179 178 174 170 168 172 172 168 172 178 182 180 173 166 165 151 135 123 110 102 92 88 102 75 356 327 314 306 294 293 297 300 304 305 305 309
256 254 253 252 250 246 242 237 234 233 232 231 227 224 222 220 219 217 215 214 212 210 211 212 213 215 217 219 218 216 215 212 210 211 208 203 203 203 199 195 193 192 189 187 187 188 185 181 181 181 179 173 169 171 175 176 174 180 186 184 175 168 165 157 142 137 130 114 102 89 78 73 58 46 23 334 294 265 267 282 289 298 308 315 320
263 260 258 255 251 247 242 238 235 233 231 228 224 221 220 217 213 210 209 208 207 206 207 208 209 209 210 211 210 210 210 207 205 205 200 198 200 200 196 192 189 186 184 181 180 181 182 181 182 182 177 171 169 173 176 180 184 187 188 183 176 169 161 151 143 141 134 121 119 109 87 80 77 91 185 208 215 220 231 254 273 296 317 324 330
266 262 258 254 249 246 241 237 233 229 226 223 219 216 214 212 208 202 199 198 197 197 198 199 199 198 198 200 202 204 206 204 200 197 193 196 200 199 194 191 188 182 178 178 178 177 179 181 181 179 174 170 172 175 178 183 188 187 182 176 170 164 159 153 150 148 145 142 141 127 111 116 139 155 160 159 157 170 214 283 300 313 320 318 318
262 257 252 246 241 236 233 230 227 223 221 216 211 207 204 204 201 195 191 189 187 186 186 186 186 185 187 193 197 198 199 198 193 190 190 195 199 198 194 192 190 184 177 175 177 178 178 178 176 173 172 171 174 177 179 182 183 175 164 155 156 163 164 161 162 165 166 162 151 142 144 153 150 144 140 137 124 311 312 315 314 311 308 302 297
249 243 237 231 227 223 221 221 220 217 213 208 203 197 191 190 189 186 184 180 177 175 174 175 174 172 173 181 189 191 188 185 184 183 184 189 193 195 196 194 192 190 185 180 177 175 174 171 167 166 170 172 174 173 171 174 173 160 153 161 170 176 177 174 178 179 169 158 153 150 153 157 156 156 177 235 279 300 308 312 309 302 294 285 283
229 224 220 216 213 211 211 212 212 210 205 199 194 187 182 180 179 179 179 174 169 166 165 167 165 161 161 167 175 182 179 176 179 179 181 187 191 193 196 195 191 191 188 182 177 172 167 163 163 167 171 170 166 165 167 173 171 161 166 180 187 189 190 186 181 171 161 159 159 157 157 163 173 184 203 249 286 298 300 296 290 284 278 281 289
214 210 206 203 202 200 198 198 199 199 196 193 188 181 175 173 171 171 172 169 165 161 159 162 161 156 154 155 160 169 172 171 173 175 178 183 186 188 191 190 187 187 183 176 173 169 164 163 165 168 167 162 161 165 170 176 180 181 187 193 195 194 190 181 172 167 165 165 164 162 161 166 175 186 227 275 288 293 294 287 278 280 287 296 308
209 201 196 193 191 187 183 180 182 183 184 187 186 180 175 172 167 166 167 165 162 160 157 157 156 151 149 148 150 157 162 164 165 166 167 170 173 178 182 181 181 182 177 169 165 163 162 164 164 163 162 163 169 173 173 177 187 191 192 193 190 187 182 177 177 178 173 168 167 167 167 172 188 222 259 280 291 299 303 298 292 299 311 322 335
205 195 189 182 178 177 173 168 169 171 173 177 178 176 175 173 167 164 164 162 159 158 157 156 154 151 148 148 148 150 153 156 157 157 157 158 159 164 169 169 169 167 160 155 155 156 157 159 160 160 161 165 169 172 173 181 187 185 182 183 183 180 180 186 189 183 175 170 169 170 174 188 216 242 264 285 295 302 307 308 312 325 337 340 346
200 190 182 174 170 169 167 164 162 162 164 169 170 170 172 172 168 167 170 169 164 161 161 161 160 159 155 151 149 148 151 156 158 159 159 157 156 157 158 158 159 157 153 152 152 153 154 155 156 159 162 163 164 168 174 180 182 179 177 177 177 179 184 186 183 177 174 173 172 175 188 207 228 247 270 286 290 299 311 318 328 339 345 345 347
192 182 174 169 165 162 160 159 157 154 154 157 161 165 170 173 170 169 174 178 176 172 170 170 169 169 165 160 156 154 156 160 163 164 165 164 163 162 160 158 159 159 158 158 155 153 154 156 158 162 166 166 166 168 172 174 175 176 178 176 177 185 191 190 183 178 177 179 181 188 200 212 227 245 260 273 291 314 323 329 336 338 337 341 345
180 176 171 166 162 159 155 154 153 151 150 148 147 149 158 169 173 170 171 178 183 183 181 178 177 176 172 168 168 168 166 165 166 167 169 170 170 167 164 163 163 161 160 162 161 159 160 162 165 169 171 170 170 171 172 174 175 176 180 185 190 194 195 195 192 185 182 187 192 196 203 211 222 233 247 268 305 330 330 330 334 333 334 338 339
175 175 174 168 164 161 157 155 154 151 149 147 142 135 131 136 148 158 162 165 169 173 177 178 178 178 174 172 174 176 172 168 168 170 172 173 173 172 168 167 167 166 166 168 168 167 169 169 171 174 176 175 175 175 177 179 181 181 184 190 196 199 199 199 197 191 190 196 201 205 212 215 218 225 240 274 313 326 320 320 328 329 330 333 330
179 179 178 174 170 165 160 157 155 151 149 147 142 135 127 121 118 123 136 147 152 154 157 161 166 173 176 175 173 174 174 173 173 175 176 176 176 176 175 174 174 175 178 179 177 176 178 178 176 176 178 178 179 180 183 186 187 189 190 192 195 201 205 204 199 198 201 207 211 215 215 213 216 223 229 247 272 287 295 304 316 319 320 321 320
188 184 180 176 172 167 162 159 157 154 152 149 146 142 136 128 122 120 121 128 137 143 148 155 157 161 171 176 174 171 173 176 178 178 179 180 180 179 178 177 177 179 184 188 185 182 182 181 180 180 181 182 184 187 190 192 194 195 197 198 200 203 204 203 203 206 212 215 214 214 214 213 214 217 219 228 239 250 273 292 300 303 308 313 315
196 190 185 179 173 168 166 164 162 159 157 155 152 148 143 138 134 129 126 124 126 130 138 151 158 157 160 168 171 169 170 175 179 179 179 180 180 177 171 167 170 181 191 195 191 185 183 183 182 183 185 188 190 192 194 196 199 201 203 205 207 206 204 204 207 213 216 215 211 211 213 214 212 210 214 221 231 246 264 276 280 286 298 304 307
202 196 189 183 176 172 170 168 165 163 160 158 156 152 147 143 140 137 135 133 129 127 130 139 151 157 158 159 162 163 165 171 176 177 178 178 176 169 162 161 168 180 192 196 194 190 187 186 186 188 192 194 196 196 197 200 204 206 206 207 208 207 207 208 211 214 215 213 212 212 214 214 213 214 215 218 225 239 253 263 267 275 286 293 297
204 197 191 187 181 176 173 171 168 165 163 161 158 154 150 146 144 142 139 136 133 130 129 131 136 143 147 149 151 152 156 161 166 169 171 172 170 168 167 169 176 183 189 193 194 193 193 194 194 196 198 199 199 200 203 206 208 208 210 211 212 211 211 211 212 214 214 213 213 215 214 212 213 215 219 227 234 238 246 259 264 265 273 282 288
203 196 192 190 185 178 174 172 170 167 165 162 159 155 151 150 148 145 142 140 137 135 135 136 136 136 138 142 145 147 149 151 154 156 160 164 171 177 178 178 181 186 189 192 195 196 199 202 204 203 202 202 203 205 208 211 211 211 213 216 217 217 217 216 215 215 216 215 215 216 217 215 215 217 220 227 235 239 245 254 260 262 267 273 278
200 196 193 192 188 182 177 173 172 170 167 163 160 157 154 152 151 149 147 146 145 143 144 146 146 145 146 149 152 151 151 151 152 156 162 170 179 186 188 187 188 191 194 196 199 202 204 205 207 206 206 207 209 210 211 212 214 216 219 221 220 218 217 217 218 217 217 218 218 218 219 220 220 222 225 226 229 235 241 246 252 257 261 265 271
199 196 193 191 190 187 183 178 174 171 168 164 162 160 157 155 154 153 151 150 150 150 150 151 151 152 153 156 158 159 157 157 159 162 166 172 180 186 191 193 194 196 199 200 201 204 207 208 208 209 210 212 214 214 215 217 220 223 225 223 220 219 218 219 221 220 220 221 222 222 224 224 222 224 228 230 232 235 238 243 250 256 261 267 274
198 195 191 189 189 190 188 183 178 175 171 168 166 164 162 161 160 159 156 155 155 155 156 156 156 157 157 159 163 164 162 160 162 165 166 170 176 183 189 195 199 202 205 205 205 207 211 211 212 213 215 218 220 221 224 227 228 229 228 227 225 226 226 227 228 227 225 225 226 227 229 229 226 227 231 234 236 238 241 246 251 255 260 268 275
197 193 189 187 188 189 189 187 184 180 177 173 171 169 168 166 165 163 161 159 158 159 159 160 160 160 161 163 167 171 170 166 166 169 171 174 182 190 196 201 206 209 212 213 214 215 217 218 220 222 224 226 227 228 230 231 231 230 231 231 231 232 233 232 231 231 231 231 231 233 234 234 233 235 238 240 241 242 245 251 255 259 264 269 275
194 191 187 186 187 188 188 188 187 184 180 177 174 173 171 169 167 164 162 161 161 160 158 159 161 162 162 166 173 178 179 176 176 181 187 193 201 207 208 209 210 212 214 217 220 222 224 226 229 232 233 233 233 234 234 234 235 236 237 237 237 236 236 237 236 236 237 237 237 238 239 240 241 243 245 246 245 245 249 254 258 262 267 271 274
194 189 186 186 187 189 189 188 186 182 180 177 175 173 172 169 166 165 163 161 162 163 160 160 162 161 160 170 182 185 185 186 190 196 201 203 205 207 207 209 212 214 215 219 221 223 226 229 230 232 235 235 235 237 239 240 242 243 242 242 242 242 242 242 242 240 241 242 242 243 244 245 247 250 251 251 251 251 253 256 258 261 265 268 271
193 188 186 185 186 187 187 186 183 180 177 175 171 171 170 168 166 166 164 162 164 167 165 164 164 162 162 173 187 188 187 190 194 194 193 193 195 199 203 207 211 213 215 219 224 226 229 231 231 231 233 235 237 239 241 241 242 244 244 244 245 246 247 248 249 250 250 249 248 248 248 249 250 251 253 254 254 255 255 256 258 262 265 267 269
189 185 182 180 180 180 180 179 178 176 173 170 166 165 167 168 168 167 166 166 168 170 170 169 169 169 171 177 184 187 189 192 192 191 190 189 192 199 205 207 211 216 219 223 228 231 233 236 238 239 240 242 244 246 247 247 248 248 248 248 249 251 254 257 258 257 254 251 250 250 251 251 251 253 254 256 256 255 255 257 258 261 263 265 266
186 181 178 175 173 172 172 172 172 170 168 166 164 161 163 166 168 168 169 170 172 173 174 174 175 178 182 185 188 191 195 197 196 195 195 194 196 202 206 209 213 220 227 232 238 242 245 247 248 249 248 249 250 251 252 253 253 254 253 254 255 257 259 259 257 255 253 253 254 254 254 254 255 255 255 256 256 255 256 257 258 259 260 262 264
180 177 175 171 168 166 165 165 165 163 162 162 161 160 160 162 165 166 169 172 174 176 178 179 182 186 190 192 194 197 199 199 196 192 188 191 196 201 208 216 224 231 239 244 248 252 253 254 255 256 256 256 257 258 258 259 259 259 259 261 262 263 263 262 260 260 259 259 259 258 256 256 257 256 256 256 256 256 258 259 259 260 261 261 263
175 172 169 166 163 161 160 160 159 158 157 155 155 156 157 158 161 163 166 170 173 176 178 180 182 186 189 192 197 201 199 193 187 183 183 189 200 212 224 235 241 244 248 252 255 257 259 260 261 262 262 262 262 263 263 263 263 263 264 265 266 267 267 266 265 265 264 263 262 260 259 258 257 256 256 256 256 257 259 261 261 261 262 261 262
169 166 163 162 160 158 158 158 157 156 155 153 152 153 153 154 156 158 161 163 166 170 173 176 179 182 185 189 193 196 193 187 185 189 199 214 229 239 244 248 251 254 258 261 263 264 266 266 265 266 266 266 267 267 267 267 267 267 268 268 268 268 267 265 265 265 264 263 262 260 259 259 258 257 257 257 258 259 260 260 260 261 259 259 260
158 156 155 155 155 153 154 155 153 152 152 151 149 149 149 151 152 153 155 157 160 162 167 170 171 174 178 181 182 183 187 190 198 211 226 236 245 251 256 260 263 266 268 268 268 269 270 270 270 271 271 271 271 272 272 273 273 273 272 271 270 268 266 264 263 262 262 262 262 261 259 258 258 258 257 258 258 259 259 259 260 260 258 257 259
145 145 145 145 144 144 145 145 144 144 145 145 145 145 146 146 146 147 150 152 154 155 157 158 158 160 164 166 171 178 187 199 216 233 247 258 265 269 270 271 272 273 274 274 274 275 276 276 277 277 277 277 277 277 277 277 277 276 275 274 271 269 267 265 264 263 262 262 261 260 259 257 257 257 258 259 259 259 261 261 259 259 259 258 258